Time,TemperatureF,DewpointF,PressureIn,WindDirection,WindDirectionDegrees,WindSpeedMPH,WindSpeedGustMPH,Humidity,HourlyPrecipIn,Conditions,Clouds,dailyrainin,SoftwareType,DateUTC
2013-02-24 00:01:00,13.0,12.0,-100.00,North,-999,-999.0,-999.0,96,-99.99,,,-99.99,,2013-02-24 07:01:00,
2013-02-24 00:11:00,12.0,12.0,-100.00,North,-999,-999.0,-999.0,96,-99.99,,,-99.99,,2013-02-24 07:11:00,
2013-02-24 00:21:00,12.0,12.0,-100.00,North,-999,-999.0,-999.0,96,-99.99,,,-99.99,,2013-02-24 07:21:00,
2013-02-24 00:31:00,12.0,12.0,-100.00,North,-999,-999.0,-999.0,96,-99.99,,,-99.99,,2013-02-24 07:31:00,
2013-02-24 00:41:00,12.0,11.0,-100.00,North,-999,-999.0,-999.0,94,-99.99,,,-99.99,,2013-02-24 07:41:00,
2013-02-24 00:52:00,12.0,11.0,-100.00,North,-999,-999.0,-999.0,94,-99.99,,,-99.99,,2013-02-24 07:52:00,
2013-02-24 01:01:00,12.0,10.0,-100.00,North,-999,-999.0,-999.0,92,-99.99,,,-99.99,,2013-02-24 08:01:00,
2013-02-24 01:11:00,12.0,10.0,-100.00,North,-999,-999.0,-999.0,91,-99.99,,,-99.99,,2013-02-24 08:11:00,
2013-02-24 01:22:00,12.0,10.0,-100.00,North,-999,-999.0,-999.0,91,-99.99,,,-99.99,,2013-02-24 08:22:00,
2013-02-24 01:31:00,12.0,10.0,-100.00,North,-999,-999.0,-999.0,91,-99.99,,,-99.99,,2013-02-24 08:31:00,
2013-02-24 01:41:00,12.0,10.0,-100.00,North,-999,-999.0,-999.0,90,-99.99,,,-99.99,,2013-02-24 08:41:00,
2013-02-24 01:54:00,12.0,10.0,-100.00,North,-999,-999.0,-999.0,90,-99.99,,,-99.99,,2013-02-24 08:54:00,
2013-02-24 02:01:00,12.0,10.0,-100.00,North,-999,-999.0,-999.0,91,-99.99,,,-99.99,,2013-02-24 09:01:00,
2013-02-24 02:11:00,12.0,9.0,-100.00,North,-999,-999.0,-999.0,89,-99.99,,,-99.99,,2013-02-24 09:11:00,
2013-02-24 02:21:00,12.0,9.0,-100.00,North,-999,-999.0,-999.0,89,-99.99,,,-99.99,,2013-02-24 09:21:00,
2013-02-24 02:31:00,12.0,9.0,-100.00,North,-999,-999.0,-999.0,89,-99.99,,,-99.99,,2013-02-24 09:31:00,
2013-02-24 02:41:00,12.0,9.0,-100.00,North,-999,-999.0,-999.0,88,-99.99,,,-99.99,,2013-02-24 09:41:00,
2013-02-24 02:52:00,12.0,9.0,-100.00,North,-999,-999.0,-999.0,88,-99.99,,,-99.99,,2013-02-24 09:52:00,
2013-02-24 03:01:00,12.0,9.0,-100.00,North,-999,-999.0,-999.0,90,-99.99,,,-99.99,,2013-02-24 10:01:00,
2013-02-24 03:11:00,12.0,10.0,-100.00,North,-999,-999.0,-999.0,92,-99.99,,,-99.99,,2013-02-24 10:11:00,
2013-02-24 03:21:00,12.0,10.0,-100.00,North,-999,-999.0,-999.0,92,-99.99,,,-99.99,,2013-02-24 10:21:00,
2013-02-24 03:31:00,12.0,10.0,-100.00,North,-999,-999.0,-999.0,92,-99.99,,,-99.99,,2013-02-24 10:31:00,
2013-02-24 03:41:00,12.0,10.0,-100.00,North,-999,-999.0,-999.0,92,-99.99,,,-99.99,,2013-02-24 10:41:00,
2013-02-24 03:52:00,12.0,10.0,-100.00,North,-999,-999.0,-999.0,92,-99.99,,,-99.99,,2013-02-24 10:52:00,
2013-02-24 04:01:00,12.0,10.0,-100.00,North,-999,-999.0,-999.0,92,-99.99,,,-99.99,,2013-02-24 11:01:00,
2013-02-24 04:11:00,12.0,10.0,-100.00,North,-999,-999.0,-999.0,92,-99.99,,,-99.99,,2013-02-24 11:11:00,
2013-02-24 04:21:00,12.0,10.0,-100.00,North,-999,-999.0,-999.0,92,-99.99,,,-99.99,,2013-02-24 11:21:00,
2013-02-24 04:32:00,12.0,10.0,-100.00,North,-999,-999.0,-999.0,92,-99.99,,,-99.99,,2013-02-24 11:32:00,
2013-02-24 04:41:00,11.0,10.0,-100.00,North,-999,-999.0,-999.0,93,-99.99,,,-99.99,,2013-02-24 11:41:00,
2013-02-24 04:52:00,11.0,10.0,-100.00,North,-999,-999.0,-999.0,93,-99.99,,,-99.99,,2013-02-24 11:52:00,
2013-02-24 05:01:00,11.0,10.0,-100.00,North,-999,-999.0,-999.0,95,-99.99,,,-99.99,,2013-02-24 12:01:00,
2013-02-24 05:11:00,11.0,10.0,-100.00,North,-999,-999.0,-999.0,95,-99.99,,,-99.99,,2013-02-24 12:11:00,
2013-02-24 05:21:00,11.0,10.0,-100.00,North,-999,-999.0,-999.0,95,-99.99,,,-99.99,,2013-02-24 12:21:00,
2013-02-24 05:32:00,11.0,10.0,-100.00,North,-999,-999.0,-999.0,95,-99.99,,,-99.99,,2013-02-24 12:32:00,
2013-02-24 05:46:00,11.0,10.0,-100.00,North,-999,-999.0,-999.0,94,-99.99,,,-99.99,,2013-02-24 12:46:00,
2013-02-24 05:56:00,11.0,10.0,-100.00,North,-999,-999.0,-999.0,94,-99.99,,,-99.99,,2013-02-24 12:56:00,
2013-02-24 06:07:00,11.0,10.0,-100.00,North,-999,-999.0,-999.0,95,-99.99,,,-99.99,,2013-02-24 13:07:00,
2013-02-24 06:15:00,11.0,11.0,-100.00,North,-999,-999.0,-999.0,99,-99.99,,,-99.99,,2013-02-24 13:15:00,
2013-02-24 06:24:00,11.0,11.0,-100.00,North,-999,-999.0,-999.0,99,-99.99,,,-99.99,,2013-02-24 13:24:00,
2013-02-24 06:32:00,11.0,11.0,-100.00,North,-999,-999.0,-999.0,99,-99.99,,,-99.99,,2013-02-24 13:32:00,
2013-02-24 06:43:00,11.0,10.0,-100.00,North,-999,-999.0,-999.0,97,-99.99,,,-99.99,,2013-02-24 13:43:00,
2013-02-24 06:54:00,11.0,10.0,-100.00,North,-999,-999.0,-999.0,97,-99.99,,,-99.99,,2013-02-24 13:54:00,
2013-02-24 07:03:00,11.0,10.0,-100.00,North,-999,-999.0,-999.0,95,-99.99,,,-99.99,,2013-02-24 14:03:00,
2013-02-24 07:12:00,11.0,10.0,-100.00,North,-999,-999.0,-999.0,94,-99.99,,,-99.99,,2013-02-24 14:12:00,
2013-02-24 07:23:00,11.0,10.0,-100.00,North,-999,-999.0,-999.0,94,-99.99,,,-99.99,,2013-02-24 14:23:00,
2013-02-24 07:32:00,11.0,10.0,-100.00,North,-999,-999.0,-999.0,94,-99.99,,,-99.99,,2013-02-24 14:32:00,
2013-02-24 07:43:00,11.0,10.0,-100.00,North,-999,-999.0,-999.0,94,-99.99,,,-99.99,,2013-02-24 14:43:00,
2013-02-24 07:54:00,11.0,10.0,-100.00,North,-999,-999.0,-999.0,94,-99.99,,,-99.99,,2013-02-24 14:54:00,
2013-02-24 08:02:00,11.0,10.0,-100.00,North,-999,-999.0,-999.0,94,-99.99,,,-99.99,,2013-02-24 15:02:00,
2013-02-24 08:12:00,11.0,10.0,-100.00,North,-999,-999.0,-999.0,95,-99.99,,,-99.99,,2013-02-24 15:12:00,
2013-02-24 08:22:00,11.0,10.0,-100.00,North,-999,-999.0,-999.0,95,-99.99,,,-99.99,,2013-02-24 15:22:00,
2013-02-24 08:31:00,11.0,10.0,-100.00,North,-999,-999.0,-999.0,95,-99.99,,,-99.99,,2013-02-24 15:31:00,
2013-02-24 08:42:00,11.0,11.0,-100.00,North,-999,-999.0,-999.0,96,-99.99,,,-99.99,,2013-02-24 15:42:00,
2013-02-24 08:53:00,11.0,11.0,-100.00,North,-999,-999.0,-999.0,96,-99.99,,,-99.99,,2013-02-24 15:53:00,
2013-02-24 09:01:00,12.0,10.0,-100.00,North,-999,-999.0,-999.0,94,-99.99,,,-99.99,,2013-02-24 16:01:00,
2013-02-24 09:11:00,12.0,10.0,-100.00,North,-999,-999.0,-999.0,93,-99.99,,,-99.99,,2013-02-24 16:11:00,
2013-02-24 09:21:00,12.0,10.0,-100.00,North,-999,-999.0,-999.0,93,-99.99,,,-99.99,,2013-02-24 16:21:00,
2013-02-24 09:31:00,12.0,10.0,-100.00,North,-999,-999.0,-999.0,93,-99.99,,,-99.99,,2013-02-24 16:31:00,
2013-02-24 09:41:00,13.0,11.0,-100.00,North,-999,-999.0,-999.0,91,-99.99,,,-99.99,,2013-02-24 16:41:00,
2013-02-24 09:52:00,13.0,11.0,-100.00,North,-999,-999.0,-999.0,91,-99.99,,,-99.99,,2013-02-24 16:52:00,
2013-02-24 10:01:00,14.0,12.0,-100.00,North,-999,-999.0,-999.0,88,-99.99,,,-99.99,,2013-02-24 17:01:00,
2013-02-24 10:11:00,14.0,11.0,-100.00,North,-999,-999.0,-999.0,86,-99.99,,,-99.99,,2013-02-24 17:11:00,
2013-02-24 10:21:00,14.0,11.0,-100.00,North,-999,-999.0,-999.0,86,-99.99,,,-99.99,,2013-02-24 17:21:00,
2013-02-24 10:31:00,14.0,11.0,-100.00,North,-999,-999.0,-999.0,86,-99.99,,,-99.99,,2013-02-24 17:31:00,
2013-02-24 10:41:00,18.0,12.0,-100.00,North,-999,-999.0,-999.0,77,-99.99,,,-99.99,,2013-02-24 17:41:00,
2013-02-24 10:52:00,18.0,12.0,-100.00,North,-999,-999.0,-999.0,77,-99.99,,,-99.99,,2013-02-24 17:52:00,
2013-02-24 11:01:00,18.0,12.0,-100.00,North,-999,-999.0,-999.0,77,-99.99,,,-99.99,,2013-02-24 18:01:00,
2013-02-24 11:11:00,22.0,15.0,-100.00,North,-999,-999.0,-999.0,74,-99.99,,,-99.99,,2013-02-24 18:11:00,
2013-02-24 11:22:00,22.0,15.0,-100.00,North,-999,-999.0,-999.0,74,-99.99,,,-99.99,,2013-02-24 18:22:00,
2013-02-24 11:41:00,22.0,14.0,-100.00,North,-999,-999.0,-999.0,70,-99.99,,,-99.99,,2013-02-24 18:41:00,
2013-02-24 11:52:00,22.0,14.0,-100.00,North,-999,-999.0,-999.0,70,-99.99,,,-99.99,,2013-02-24 18:52:00,
2013-02-24 12:01:00,24.0,15.0,-100.00,North,-999,-999.0,-999.0,67,-99.99,,,-99.99,,2013-02-24 19:01:00,
2013-02-24 12:11:00,22.0,14.0,-100.00,North,-999,-999.0,-999.0,71,-99.99,,,-99.99,,2013-02-24 19:11:00,
2013-02-24 12:22:00,22.0,14.0,-100.00,North,-999,-999.0,-999.0,71,-99.99,,,-99.99,,2013-02-24 19:22:00,
2013-02-24 12:31:00,22.0,14.0,-100.00,North,-999,-999.0,-999.0,71,-99.99,,,-99.99,,2013-02-24 19:31:00,
2013-02-24 12:41:00,20.0,13.0,-100.00,North,-999,-999.0,-999.0,75,-99.99,,,-99.99,,2013-02-24 19:41:00,
2013-02-24 12:52:00,20.0,13.0,-100.00,North,-999,-999.0,-999.0,75,-99.99,,,-99.99,,2013-02-24 19:52:00,
2013-02-24 13:02:00,20.0,14.0,-100.00,North,-999,-999.0,-999.0,75,-99.99,,,-99.99,,2013-02-24 20:02:00,
2013-02-24 13:11:00,20.0,14.0,-100.00,North,-999,-999.0,-999.0,77,-99.99,,,-99.99,,2013-02-24 20:11:00,
2013-02-24 13:21:00,20.0,14.0,-100.00,North,-999,-999.0,-999.0,77,-99.99,,,-99.99,,2013-02-24 20:21:00,
2013-02-24 13:31:00,20.0,14.0,-100.00,North,-999,-999.0,-999.0,77,-99.99,,,-99.99,,2013-02-24 20:31:00,
2013-02-24 13:41:00,20.0,14.0,-100.00,North,-999,-999.0,-999.0,75,-99.99,,,-99.99,,2013-02-24 20:41:00,
2013-02-24 13:52:00,20.0,14.0,-100.00,North,-999,-999.0,-999.0,75,-99.99,,,-99.99,,2013-02-24 20:52:00,
2013-02-24 14:01:00,20.0,14.0,-100.00,North,-999,-999.0,-999.0,76,-99.99,,,-99.99,,2013-02-24 21:01:00,
2013-02-24 14:11:00,21.0,15.0,-100.00,North,-999,-999.0,-999.0,76,-99.99,,,-99.99,,2013-02-24 21:11:00,
2013-02-24 14:21:00,21.0,15.0,-100.00,North,-999,-999.0,-999.0,76,-99.99,,,-99.99,,2013-02-24 21:21:00,
2013-02-24 14:31:00,21.0,15.0,-100.00,North,-999,-999.0,-999.0,76,-99.99,,,-99.99,,2013-02-24 21:31:00,
2013-02-24 14:41:00,23.0,16.0,-100.00,North,-999,-999.0,-999.0,74,-99.99,,,-99.99,,2013-02-24 21:41:00,
2013-02-24 14:52:00,23.0,16.0,-100.00,North,-999,-999.0,-999.0,74,-99.99,,,-99.99,,2013-02-24 21:52:00,
2013-02-24 15:01:00,23.0,16.0,-100.00,North,-999,-999.0,-999.0,74,-99.99,,,-99.99,,2013-02-24 22:01:00,
2013-02-24 15:11:00,24.0,17.0,-100.00,North,-999,-999.0,-999.0,73,-99.99,,,-99.99,,2013-02-24 22:11:00,
2013-02-24 15:21:00,24.0,17.0,-100.00,North,-999,-999.0,-999.0,73,-99.99,,,-99.99,,2013-02-24 22:21:00,
2013-02-24 15:31:00,24.0,17.0,-100.00,North,-999,-999.0,-999.0,73,-99.99,,,-99.99,,2013-02-24 22:31:00,
2013-02-24 15:41:00,23.0,17.0,-100.00,North,-999,-999.0,-999.0,76,-99.99,,,-99.99,,2013-02-24 22:41:00,
2013-02-24 15:52:00,23.0,17.0,-100.00,North,-999,-999.0,-999.0,76,-99.99,,,-99.99,,2013-02-24 22:52:00,
2013-02-24 16:02:00,21.0,16.0,-100.00,North,-999,-999.0,-999.0,79,-99.99,,,-99.99,,2013-02-24 23:02:00,
2013-02-24 16:11:00,22.0,15.0,-100.00,North,-999,-999.0,-999.0,74,-99.99,,,-99.99,,2013-02-24 23:11:00,
2013-02-24 16:21:00,22.0,15.0,-100.00,North,-999,-999.0,-999.0,74,-99.99,,,-99.99,,2013-02-24 23:21:00,
2013-02-24 16:31:00,22.0,15.0,-100.00,North,-999,-999.0,-999.0,74,-99.99,,,-99.99,,2013-02-24 23:31:00,
2013-02-24 16:41:00,21.0,15.0,-100.00,North,-999,-999.0,-999.0,77,-99.99,,,-99.99,,2013-02-24 23:41:00,
2013-02-24 16:52:00,21.0,15.0,-100.00,North,-999,-999.0,-999.0,77,-99.99,,,-99.99,,2013-02-24 23:52:00,
2013-02-24 17:01:00,21.0,15.0,-100.00,North,-999,-999.0,-999.0,77,-99.99,,,-99.99,,2013-02-25 00:01:00,
2013-02-24 17:11:00,18.0,13.0,-100.00,North,-999,-999.0,-999.0,82,-99.99,,,-99.99,,2013-02-25 00:11:00,
2013-02-24 17:21:00,18.0,13.0,-100.00,North,-999,-999.0,-999.0,82,-99.99,,,-99.99,,2013-02-25 00:21:00,
2013-02-24 17:30:00,14.0,12.0,-100.00,North,-999,-999.0,-999.0,90,-99.99,,,-99.99,,2013-02-25 00:30:00,
2013-02-24 17:31:00,18.0,13.0,-100.00,North,-999,-999.0,-999.0,82,-99.99,,,-99.99,,2013-02-25 00:31:00,
2013-02-24 17:41:00,16.0,12.0,-100.00,North,-999,-999.0,-999.0,86,-99.99,,,-99.99,,2013-02-25 00:41:00,
2013-02-24 17:52:00,16.0,12.0,-100.00,North,-999,-999.0,-999.0,86,-99.99,,,-99.99,,2013-02-25 00:52:00,
2013-02-24 18:01:00,14.0,12.0,-100.00,North,-999,-999.0,-999.0,90,-99.99,,,-99.99,,2013-02-25 01:01:00,
2013-02-24 18:11:00,14.0,12.0,-100.00,North,-999,-999.0,-999.0,90,-99.99,,,-99.99,,2013-02-25 01:11:00,
2013-02-24 18:21:00,14.0,12.0,-100.00,North,-999,-999.0,-999.0,90,-99.99,,,-99.99,,2013-02-25 01:21:00,
2013-02-24 18:42:00,11.0,10.0,-100.00,North,-999,-999.0,-999.0,95,-99.99,,,-99.99,,2013-02-25 01:42:00,
2013-02-24 18:52:00,11.0,10.0,-100.00,North,-999,-999.0,-999.0,95,-99.99,,,-99.99,,2013-02-25 01:52:00,
2013-02-24 19:01:00,11.0,10.0,-100.00,North,-999,-999.0,-999.0,96,-99.99,,,-99.99,,2013-02-25 02:01:00,
2013-02-24 19:11:00,10.0,10.0,-100.00,North,-999,-999.0,-999.0,97,-99.99,,,-99.99,,2013-02-25 02:11:00,
2013-02-24 19:21:00,10.0,10.0,-100.00,North,-999,-999.0,-999.0,97,-99.99,,,-99.99,,2013-02-25 02:21:00,
2013-02-24 19:31:00,10.0,10.0,-100.00,North,-999,-999.0,-999.0,97,-99.99,,,-99.99,,2013-02-25 02:31:00,
2013-02-24 19:41:00,10.0,9.0,-100.00,North,-999,-999.0,-999.0,96,-99.99,,,-99.99,,2013-02-25 02:41:00,
2013-02-24 19:52:00,10.0,9.0,-100.00,North,-999,-999.0,-999.0,96,-99.99,,,-99.99,,2013-02-25 02:52:00,
2013-02-24 20:01:00,10.0,9.0,-100.00,North,-999,-999.0,-999.0,97,-99.99,,,-99.99,,2013-02-25 03:01:00,
2013-02-24 20:11:00,11.0,10.0,-100.00,North,-999,-999.0,-999.0,93,-99.99,,,-99.99,,2013-02-25 03:11:00,
2013-02-24 20:21:00,11.0,10.0,-100.00,North,-999,-999.0,-999.0,93,-99.99,,,-99.99,,2013-02-25 03:21:00,
2013-02-24 20:31:00,11.0,10.0,-100.00,North,-999,-999.0,-999.0,93,-99.99,,,-99.99,,2013-02-25 03:31:00,
2013-02-24 20:41:00,9.0,8.0,-100.00,North,-999,-999.0,-999.0,96,-99.99,,,-99.99,,2013-02-25 03:41:00,
2013-02-24 20:52:00,9.0,8.0,-100.00,North,-999,-999.0,-999.0,96,-99.99,,,-99.99,,2013-02-25 03:52:00,
2013-02-24 21:01:00,9.0,8.0,-100.00,North,-999,-999.0,-999.0,96,-99.99,,,-99.99,,2013-02-25 04:01:00,
2013-02-24 21:11:00,8.0,8.0,-100.00,North,-999,-999.0,-999.0,96,-99.99,,,-99.99,,2013-02-25 04:11:00,
2013-02-24 21:21:00,8.0,8.0,-100.00,North,-999,-999.0,-999.0,96,-99.99,,,-99.99,,2013-02-25 04:21:00,
2013-02-24 21:31:00,8.0,8.0,-100.00,North,-999,-999.0,-999.0,96,-99.99,,,-99.99,,2013-02-25 04:31:00,
2013-02-24 21:41:00,8.0,7.0,-100.00,North,-999,-999.0,-999.0,97,-99.99,,,-99.99,,2013-02-25 04:41:00,
2013-02-24 21:52:00,8.0,7.0,-100.00,North,-999,-999.0,-999.0,97,-99.99,,,-99.99,,2013-02-25 04:52:00,
2013-02-24 22:01:00,8.0,8.0,-100.00,North,-999,-999.0,-999.0,97,-99.99,,,-99.99,,2013-02-25 05:01:00,
2013-02-24 22:11:00,8.0,7.0,-100.00,North,-999,-999.0,-999.0,97,-99.99,,,-99.99,,2013-02-25 05:11:00,
2013-02-24 22:22:00,8.0,7.0,-100.00,North,-999,-999.0,-999.0,97,-99.99,,,-99.99,,2013-02-25 05:22:00,
2013-02-24 22:31:00,8.0,7.0,-100.00,North,-999,-999.0,-999.0,97,-99.99,,,-99.99,,2013-02-25 05:31:00,
2013-02-24 22:41:00,8.0,7.0,-100.00,North,-999,-999.0,-999.0,98,-99.99,,,-99.99,,2013-02-25 05:41:00,
2013-02-24 22:52:00,8.0,7.0,-100.00,North,-999,-999.0,-999.0,98,-99.99,,,-99.99,,2013-02-25 05:52:00,
2013-02-24 23:02:00,8.0,8.0,-100.00,North,-999,-999.0,-999.0,98,-99.99,,,-99.99,,2013-02-25 06:02:00,
2013-02-24 23:11:00,8.0,7.0,-100.00,North,-999,-999.0,-999.0,97,-99.99,,,-99.99,,2013-02-25 06:11:00,
2013-02-24 23:21:00,8.0,7.0,-100.00,North,-999,-999.0,-999.0,97,-99.99,,,-99.99,,2013-02-25 06:21:00,
2013-02-24 23:31:00,8.0,7.0,-100.00,North,-999,-999.0,-999.0,97,-99.99,,,-99.99,,2013-02-25 06:31:00,
2013-02-24 23:41:00,8.0,7.0,-100.00,North,-999,-999.0,-999.0,95,-99.99,,,-99.99,,2013-02-25 06:41:00,
2013-02-24 23:52:00,8.0,7.0,-100.00,North,-999,-999.0,-999.0,95,-99.99,,,-99.99,,2013-02-25 06:52:00,